This is the latest recevied weather packets stored in our database for station/object K1FFK-1. If no packets are shown the sender has not sent any weather packets the latest 10 day(s).
| Time | Temp. | Humidity | Pressure | Rain* | Wind** | Luminosity | Snow |
|---|---|---|---|---|---|---|---|
| 1778198494 | 2.22° C | 64% | 1010.3 hPa | 0 mm | - | - | - |
| 1778197894 | 2.78° C | 63% | 1010.2 hPa | 0 mm | - | - | - |
| 1778197294 | 2.78° C | 61% | 1010.2 hPa | 0 mm | - | - | - |
| 1778196694 | 3.33° C | 61% | 1009.8 hPa | 0 mm | - | - | - |
| 1778196094 | 3.33° C | 63% | 1010 hPa | 0 mm | - | - | - |
| 1778195494 | 3.89° C | 62% | 1010.1 hPa | 0 mm | - | - | - |
| 1778194893 | 3.89° C | 61% | 1010.1 hPa | 0 mm | - | - | - |
| 1778194294 | 3.89° C | 61% | 1010.2 hPa | 0 mm | - | - | - |
| 1778193693 | 3.89° C | 58% | 1009.9 hPa | 0 mm | - | - | - |
| 1778193093 | 3.89° C | 56% | 1009.9 hPa | 0 mm | - | - | - |
| 1778192495 | 4.44° C | 56% | 1009.9 hPa | 0 mm | - | - | - |
| 1778191894 | 3.89° C | 58% | 1009.8 hPa | 0 mm | - | - | - |
| 1778191293 | 4.44° C | 58% | 1009.9 hPa | 0 mm | - | - | - |
| 1778190694 | 4.44° C | 59% | 1010.1 hPa | 0 mm | - | - | - |
| 1778190094 | 3.89° C | 60% | 1010 hPa | 0 mm | - | - | - |
| 1778189494 | 4.44° C | 58% | 1010 hPa | 0 mm | - | - | - |
| 1778188894 | 3.89° C | 60% | 1010 hPa | 0 mm | - | - | - |
| 1778188293 | 3.33° C | 61% | 1009.9 hPa | 0 mm | - | - | - |
| 1778187695 | 3.33° C | 59% | 1009.7 hPa | 0 mm | - | - | - |
| 1778187094 | 3.33° C | 60% | 1009.7 hPa | 0 mm | - | - | - |
| 1778186494 | 3.89° C | 60% | 1009.9 hPa | 0 mm | - | - | - |
| 1778185894 | 3.89° C | 58% | 1009.8 hPa | 0 mm | - | - | - |
| 1778185294 | 3.89° C | 58% | 1009.9 hPa | 0 mm | - | - | - |
| 1778184694 | 3.89° C | 60% | 1010 hPa | 0 mm | - | - | - |
| 1778184094 | 3.89° C | 62% | 1010.2 hPa | 0 mm | - | - | - |
* Rain latest hour (hover to see other rain measurements)
** Current wind speed in m/s (hover to see current wind gust speed)